Regional Weather Roundup
Issued by NWS

Home | Current Version | Previous Version | Text Only | Print | Product List | Glossary On
Versions: 1 2 3 4 5 6 7 8 9 10 11 12 13 14 15 16 17 18 19 20 21 22 23 24 25 26 27 28 29 30 31 32 33 34 35 36 37 38 39 40 41 42 43 44 45 46 47 48 49 50
927
ASUS43 KTOP 280908
RWRKS

WEATHER ROUNDUP FOR KANSAS
NATIONAL WEATHER SERVICE GOODLAND KS
400 AM CDT SAT MAY 28 2016

NOTE:  "FAIR" INDICATES FEW OR NO CLOUDS BELOW 12,000 FEET WITH NO
SIGNIFICANT WEATHER AND/OR OBSTRUCTIONS TO VISIBILITY.

KSZ001>006-013>018-027>032-041>047-281000-
NORTHWEST KANSAS

CITY           SKY/WX    TMP DP  RH WIND       PRES   REMARKS
GOODLAND       CLEAR     47  45  93 W10       29.88S
HAYS           CLOUDY    55  48  76 W3        29.79R
HILL CITY      PTCLDY    55  52  89 NW10      29.80R
RUSSELL        CLOUDY    55  55 100 W5        29.77R
$$

KSZ061>065-074>080-084>089-281000-
SOUTHWEST KANSAS

CITY           SKY/WX    TMP DP  RH WIND       PRES   REMARKS
DODGE CITY     CLEAR     52  49  89 W10       29.84R
ELKHART          N/A     49  42  77 W8          N/A
GARDEN CITY    CLEAR     48  45  89 NW8       29.85S
GREAT BEND     CLOUDY    57  50  77 NW7       29.78R
LIBERAL        CLEAR     50  43  76 W8        29.89S
PRATT          CLOUDY    54  51  91 NW9       29.78S
$$

KSZ066>073-081>083-090>101-281000-
SOUTHEAST KANSAS

CITY           SKY/WX    TMP DP  RH WIND       PRES   REMARKS
CHANUTE        MOCLDY    62  59  90 SE10      29.75S
COFFEYVILLE    MOCLDY    64  62  93 S10       29.77S
HUTCHINSON     PTCLDY    59  56  89 N7        29.74R
MEDICINE LODGE   N/A     58  53  84 MISG      29.77R
NEWTON         CLOUDY    61  55  82 E3        29.74S
PARSONS        MOCLDY    63  61  93 S6        29.77S
WICHITA INTL   MOCLDY    60  55  83 SW8       29.72R
WICHITA JABRA  CLEAR     60  56  86 SW10      29.72R
WICHITA MCCONL CLEAR     60  55  83 SW8       29.73R
WINFIELD       CLEAR     60  56  86 SW9       29.77R
$$

KSZ007>012-019>026-033>040-048>060-102>105-281000-
NORTHEAST KANSAS

CITY           SKY/WX    TMP DP  RH WIND       PRES   REMARKS
CONCORDIA      LGT RAIN  58  57  97 NW9       29.76R
EMPORIA        CLOUDY    62  58  86 VRB5      29.73S
LAWRENCE       CLOUDY    59  58  96 SE3       29.76R
MANHATTAN      MOCLDY    59  56  89 CALM      29.73R
MARYSVILLE     LGT RAIN  57  57 100 CALM      29.73S
OLATHE IND     CLEAR     57  56  96 CALM      29.77R
OLATHE EXE     CLEAR     57  56  96 CALM      29.76R
SALINA         RAIN      60  58  92 N7        29.74R
TOPEKA BILLARD CLOUDY    60  58  92 E6        29.75R
TOPEKA FORBES  CLOUDY    60  58  92 E6        29.75R
$$




USA.gov is the U.S. government's official web portal to all federal, state and local government web resources and services.